STARLINK-32403, 61629

Orbit data source: Space-Track

STARLINK-32403, 61629 is a payload satellite owned by SpaceX/Seattle (US) in LEO that was launched on Wed, 23 Oct 2024 UTC via an FALCON 9 launch vehicle from the Air Force Eastern Test Range (AFETR). Payload-class satellites include a variety of spacecraft equipped with specific instruments for various scientific and technological missions. These include communications satellites like Starlink; space stations such as the ISS; scientific satellites like the Hubble; Earth observation satellites from companies like Planet Labs, Umbra, and HawkEye 360; GPS; miniature CubeSats for education and research; and military/defense satellites.

Loading next visibility...
Identifier
61629, 2024-191J
Orbit
LEO
Last TLE update
5 hours ago
Origin
Manufacturer
SpaceX/Seattle
Mission
Operational Commercial Communications
Bus & Motor
STARLINK V2M, Unknown motor
Mass
730 kg wet, ~700 kg dry
Launch date (UTC)
2024-10-23 (9 months ago)
Launch vehicle
FALCON 9
Launch site
Air Force Eastern Test Range (AFETR)
Object type
Payload
Rocket body
Debris
Shape & HBR
Box + 2 Pan, 29 m
Radar Cross Section
36.964 m², Large (>1 m²)

Expand to show TLE details & history

TLE from 5 hours ago
0 STARLINK-32403
1 61629U 24191J   25190.10538831 -.00001252  00000-0 -36008-4 0  9990
2 61629  43.0009  90.1136 0000588 331.8929  28.1891 15.27565809 40997
Epoch: 2025-07-09T02:31Z
TLE epoch observation values (Epoch: 2025-07-09T02:31:45.549Z)
Latitude
-0.00003°
Longitude
124.88299°
Altitude
482.512 km
Speed
7.626 km/s
True Right ascension
06h 00m 27s
True Declination
0° 00' 00"
Sunlit
Object was in daylight at epoch
Visualization orbit readout
Latitude
22.64752°
Longitude
150.15926°
Altitude
482.489 km
Speed
7.628 km/s
Apparent Right ascension
07h 37m 40s
Apparent Declination
-7° 19' 41"
Sunlit
Object is in daylight
Visualization observer readout
Local Sidereal Time
19:32:39
Azimuth
357.689° N
Elevation
-57.392°
Doppler factor
1
Orbital elements
Apogee altitude
485.44 km
Perigee altitude
484.633 km
Semi-major axis
6,863.174 km
Eccentricity
0.00006
Inclination
43.0009°
RAAN
90.1136°
Arg. of periapsis
331.8929°
True anomaly
Unknown
Mean anomaly
28.1891°
Eccentric anomaly
Unknown
Mean motion
3.81729 °/min
Orbital period
94.31 mins
BSTAR
-0.000036008
Loading maneuver chart data...
Loading SW <> Apogee altitude chart data...
Loading historical data...
Loading historical data...
Loading historical data...
Loading historical data...
Loading historical data...
Loading historical data...
Loading historical data...

STARLINK-32403 Visibility forecast

Observer location: undefined°, undefined°

Span
Click to sort rows by Start time (UTC) header in descending order
Start Az.
Max El. time (UTC)
Max El. Az.
Max El.
End time (UTC)
End Az.
4 mins2025-07-09 19:59:09.893Z183.579° SSW2025-07-09 20:01:09.893Z142.842° SSE19.7°2025-07-09 20:03:09.893Z103.835° ESE
6 mins2025-07-09 21:37:09.893Z248.316° W2025-07-09 21:40:09.893Z80.296° E42.504°2025-07-09 21:43:09.893Z72.423° E
5 mins2025-07-09 23:17:09.893Z295.344° NW2025-07-09 23:19:09.893Z20.387° NNE37.187°2025-07-09 23:22:09.893Z74.61° E
5 mins2025-07-10 00:56:09.893Z292.753° NW2025-07-10 00:58:09.893Z53.713° ENE44.089°2025-07-10 01:01:09.893Z102.641° ESE
4 mins2025-07-10 02:35:09.893Z252.429° W2025-07-10 02:37:09.893Z198.962° SSW24.788°2025-07-10 02:39:09.893Z159.407° S
|